When you browse on this site, cookies collect data to enhance your experience and personalize the content and advertising you see.
Visit our Privacy Policy to learn more. By continuing to use the site, you agree to this use of cookies and data.
  • In Deutschland
  • Länderverzeichnis
  • Für 7 Tage
  • Wassertemperatur
  • Satellitenkarten
  • Wetterkarte
  • Widgets
  • user-avatar
    Anmelden

    Stündliche Wetter Luanda

    Heute, 19 Juni, Mittwoch

    Zeit Temperatur Niederschläge Wind Luftdruck Luftfeuchtigkeit
    00:00 +19°C° 0 mm 2 m/S 756 mmHg 93%
    01:00 +19°C° 0 mm 2 m/S 756 mmHg 93%
    02:00 +19°C° 0 mm 2 m/S 756 mmHg 93%
    03:00 +19°C° 0 mm 2 m/S 756 mmHg 93%
    04:00 +18°C° 0 mm 2 m/S 755 mmHg 93%
    05:00 +19°C° 0 mm 2 m/S 756 mmHg 92%
    06:00 +19°C° 0 mm 2 m/S 756 mmHg 91%
    07:00 +19°C° 0 mm 2 m/S 756 mmHg 91%
    08:00 +23°C° 0 mm 2 m/S 756 mmHg 78%
    09:00 +26°C° 0 mm 2 m/S 756 mmHg 66%
    10:00 +29°C° 0 mm 1 m/S 756 mmHg 53%
    11:00 +31°C° 0 mm 2 m/S 756 mmHg 46%
    12:00 +34°C° 0 mm 3 m/S 755 mmHg 38%
    13:00 +36°C° 0 mm 4 m/S 754 mmHg 31%
    14:00 +35°C° 0 mm 4 m/S 754 mmHg 36%
    15:00 +34°C° 0 mm 5 m/S 753 mmHg 40%
    16:00 +33°C° 0 mm 5 m/S 753 mmHg 45%
    17:00 +29°C° 0 mm 5 m/S 753 mmHg 57%
    18:00 +27°C° 0 mm 5 m/S 754 mmHg 68%
    19:00 +23°C° 0 mm 5 m/S 754 mmHg 80%
    20:00 +22°C° 0 mm 5 m/S 755 mmHg 82%
    21:00 +22°C° 0 mm 5 m/S 755 mmHg 84%
    22:00 +21°C° 0 mm 4 m/S 756 mmHg 86%
    23:00 +21°C° 0 mm 4 m/S 756 mmHg 87%

    Morgen, 20 Juni, Donnerstag

    Zeit Temperatur Niederschläge Wind Luftdruck Luftfeuchtigkeit
    00:00 +20°C° 0 mm 3 m/S 756 mmHg 88%
    01:00 +20°C° 0 mm 2 m/S 756 mmHg 89%
    02:00 +19°C° 0 mm 2 m/S 756 mmHg 90%
    03:00 +19°C° 0 mm 2 m/S 756 mmHg 91%
    04:00 +20°C° 0 mm 1 m/S 755 mmHg 92%
    05:00 +20°C° 0 mm 1 m/S 756 mmHg 92%
    06:00 +19°C° 0 mm 2 m/S 756 mmHg 91%
    07:00 +20°C° 0 mm 2 m/S 756 mmHg 91%
    08:00 +24°C° 0 mm 2 m/S 756 mmHg 77%
    09:00 +26°C° 0 mm 2 m/S 756 mmHg 63%
    10:00 +29°C° 0 mm 2 m/S 756 mmHg 50%
    11:00 +31°C° 0 mm 3 m/S 756 mmHg 42%
    12:00 +34°C° 0 mm 4 m/S 755 mmHg 35%
    13:00 +36°C° 0 mm 4 m/S 754 mmHg 28%
    14:00 +35°C° 0 mm 5 m/S 754 mmHg 33%
    15:00 +35°C° 0 mm 5 m/S 753 mmHg 37%
    16:00 +34°C° 0 mm 6 m/S 753 mmHg 42%
    17:00 +30°C° 0 mm 6 m/S 753 mmHg 51%
    18:00 +27°C° 0 mm 6 m/S 754 mmHg 61%
    19:00 +24°C° 0 mm 6 m/S 754 mmHg 71%
    20:00 +23°C° 0 mm 5 m/S 754 mmHg 74%
    21:00 +22°C° 0 mm 5 m/S 755 mmHg 77%
    22:00 +22°C° 0 mm 4 m/S 756 mmHg 80%
    23:00 +21°C° 0 mm 3 m/S 755 mmHg 81%

    übermorgen, 21 Juni, Freitag

    Zeit Temperatur Niederschläge Wind Luftdruck Luftfeuchtigkeit
    00:00 +20°C° 0 mm 2 m/S 755 mmHg 82%
    01:00 +19°C° 0 mm 2 m/S 755 mmHg 84%
    02:00 +19°C° 0 mm 2 m/S 755 mmHg 84%
    03:00 +19°C° 0 mm 2 m/S 755 mmHg 85%
    04:00 +18°C° 0 mm 2 m/S 755 mmHg 85%
    05:00 +20°C° 0 mm 1 m/S 755 mmHg 84%
    06:00 +20°C° 0 mm 1 m/S 756 mmHg 83%
    07:00 +20°C° 0 mm 1 m/S 756 mmHg 81%
    08:00 +23°C° 0 mm 1 m/S 757 mmHg 71%
    09:00 +26°C° 0 mm 1 m/S 757 mmHg 60%
    10:00 +29°C° 0 mm 1 m/S 757 mmHg 49%
    11:00 +30°C° 0 mm 2 m/S 756 mmHg 46%
    12:00 +31°C° 0 mm 3 m/S 755 mmHg 42%
    13:00 +34°C° 0 mm 4 m/S 755 mmHg 38%
    14:00 +32°C° 0 mm 4 m/S 754 mmHg 44%
    15:00 +30°C° 0 mm 5 m/S 754 mmHg 50%
    16:00 +29°C° 0 mm 5 m/S 753 mmHg 56%
    17:00 +27°C° 0 mm 5 m/S 753 mmHg 66%
    18:00 +25°C° 0 mm 4 m/S 754 mmHg 77%
    19:00 +22°C° 0 mm 4 m/S 754 mmHg 87%
    20:00 +21°C° 0 mm 3 m/S 755 mmHg 90%
    21:00 +20°C° 0 mm 3 m/S 755 mmHg 92%
    22:00 +20°C° 0 mm 2 m/S 756 mmHg 94%
    23:00 +20°C° 0 mm 2 m/S 756 mmHg 95%

    22 Juni, Samstag

    Zeit Temperatur Niederschläge Wind Luftdruck Luftfeuchtigkeit
    00:00 +19°C° 0 mm 2 m/S 756 mmHg 95%
    01:00 +19°C° 0 mm 2 m/S 756 mmHg 95%
    02:00 +19°C° 0 mm 2 m/S 755 mmHg 95%
    03:00 +19°C° 0 mm 2 m/S 755 mmHg 96%
    04:00 +19°C° 0 mm 3 m/S 755 mmHg 96%
    05:00 +19°C° 0 mm 2 m/S 756 mmHg 96%
    06:00 +19°C° 0 mm 2 m/S 756 mmHg 96%
    07:00 +19°C° 0 mm 2 m/S 756 mmHg 96%
    08:00 +23°C° 0 mm 2 m/S 756 mmHg 85%
    09:00 +25°C° 0 mm 2 m/S 756 mmHg 74%
    10:00 +27°C° 0 mm 2 m/S 756 mmHg 63%
    11:00 +28°C° 0 mm 3 m/S 756 mmHg 61%
    12:00 +28°C° 0 mm 3 m/S 755 mmHg 59%
    13:00 +29°C° 0 mm 3 m/S 755 mmHg 56%
    14:00 +28°C° 0 mm 4 m/S 754 mmHg 59%
    15:00 +28°C° 0 mm 4 m/S 754 mmHg 61%
    16:00 +27°C° 0 mm 5 m/S 754 mmHg 64%
    17:00 +25°C° 0 mm 4 m/S 754 mmHg 72%
    18:00 +23°C° 0 mm 4 m/S 755 mmHg 80%
    19:00 +21°C° 0 mm 3 m/S 755 mmHg 88%
    20:00 +21°C° 0 mm 3 m/S 755 mmHg 89%
    21:00 +20°C° 0 mm 3 m/S 756 mmHg 91%
    22:00 +20°C° 0 mm 2 m/S 756 mmHg 92%
    23:00 +19°C° 0 mm 2 m/S 756 mmHg 93%

    23 Juni, Sonntag

    Zeit Temperatur Niederschläge Wind Luftdruck Luftfeuchtigkeit
    00:00 +20°C° 0 mm 1 m/S 756 mmHg 95%
    01:00 +19°C° 0 mm 1 m/S 756 mmHg 96%
    02:00 +19°C° 0 mm 1 m/S 756 mmHg 96%
    03:00 +18°C° 0 mm 2 m/S 756 mmHg 96%
    04:00 +18°C° 0 mm 3 m/S 756 mmHg 96%
    05:00 +19°C° 0 mm 3 m/S 756 mmHg 95%
    06:00 +19°C° 0 mm 3 m/S 756 mmHg 93%
    07:00 +20°C° 0 mm 2 m/S 756 mmHg 91%
    08:00 +23°C° 0 mm 2 m/S 757 mmHg 80%
    09:00 +25°C° 0 mm 1 m/S 757 mmHg 68%
    10:00 +25°C° 0 mm 0 m/S 757 mmHg 57%
    11:00 +28°C° 0 mm 2 m/S 756 mmHg 52%
    12:00 +30°C° 0 mm 3 m/S 756 mmHg 48%
    13:00 +32°C° 0 mm 4 m/S 755 mmHg 44%
    14:00 +29°C° 0 mm 4 m/S 755 mmHg 49%
    15:00 +28°C° 0 mm 4 m/S 754 mmHg 53%
    16:00 +27°C° 0 mm 5 m/S 754 mmHg 58%
    17:00 +25°C° 0 mm 4 m/S 754 mmHg 68%
    18:00 +22°C° 0 mm 4 m/S 755 mmHg 78%
    19:00 +21°C° 0 mm 3 m/S 755 mmHg 88%
    20:00 +20°C° 0 mm 3 m/S 755 mmHg 90%
    21:00 +20°C° 0 mm 3 m/S 756 mmHg 92%
    22:00 +19°C° 0 mm 2 m/S 756 mmHg 94%
    23:00 +19°C° 0 mm 2 m/S 756 mmHg 95%

    24 Juni, Montag

    Zeit Temperatur Niederschläge Wind Luftdruck Luftfeuchtigkeit
    00:00 +19°C° 0 mm 2 m/S 756 mmHg 95%
    01:00 +18°C° 0 mm 2 m/S 756 mmHg 96%
    02:00 +18°C° 0 mm 2 m/S 756 mmHg 96%
    03:00 +18°C° 0 mm 3 m/S 756 mmHg 96%
    04:00 +18°C° 0 mm 3 m/S 756 mmHg 95%
    05:00 +19°C° 0 mm 3 m/S 756 mmHg 93%
    06:00 +19°C° 0 mm 3 m/S 756 mmHg 91%
    07:00 +19°C° 0 mm 3 m/S 757 mmHg 88%
    08:00 +21°C° 0 mm 2 m/S 757 mmHg 78%
    09:00 +24°C° 0 mm 2 m/S 757 mmHg 68%
    10:00 +26°C° 0 mm 2 m/S 757 mmHg 58%
    11:00 +28°C° 0 mm 3 m/S 756 mmHg 51%
    12:00 +30°C° 0 mm 3 m/S 755 mmHg 44%
    13:00 +33°C° 0 mm 4 m/S 755 mmHg 37%
    14:00 +30°C° 0 mm 5 m/S 754 mmHg 43%
    15:00 +29°C° 0 mm 5 m/S 754 mmHg 50%
    16:00 +28°C° 0 mm 6 m/S 754 mmHg 56%
    17:00 +26°C° 0 mm 5 m/S 754 mmHg 66%
    18:00 +23°C° 0 mm 4 m/S 754 mmHg 75%
    19:00 +21°C° 0 mm 4 m/S 755 mmHg 85%
    20:00 +20°C° 0 mm 4 m/S 755 mmHg 88%
    21:00 +20°C° 0 mm 3 m/S 755 mmHg 91%
    22:00 +19°C° 0 mm 3 m/S 756 mmHg 93%
    23:00 +19°C° 0 mm 3 m/S 756 mmHg 94%
    Mehr zeigen